TimeMST,TemperatureF,Dew PointF,Humidity,Sea Level PressureIn,VisibilityMPH,Wind Direction,Wind SpeedMPH,Gust SpeedMPH,PrecipitationIn,Events,Conditions,WindDirDegrees,DateUTC
12:13 AM,33.8,30.2,87,29.93,4.0,NNW,28.8,36.8,0.00,Snow,Light Snow,340,2012-11-22 07:13:00
12:18 AM,33.8,30.2,87,29.93,2.0,NNW,31.1,40.3,0.00,Snow,Light Snow,340,2012-11-22 07:18:00
12:22 AM,33.8,30.2,87,29.94,1.0,NNW,28.8,40.3,0.00,Snow,Light Snow,330,2012-11-22 07:22:00
12:25 AM,33.8,30.2,87,29.94,0.8,NNW,23.0,39.1,0.00,Snow,Light Snow,340,2012-11-22 07:25:00
12:33 AM,33.8,30.2,87,29.94,1.2,NNW,25.3,34.5,0.00,Snow,Light Snow,340,2012-11-22 07:33:00
12:49 AM,33.8,30.2,87,29.94,3.0,North,17.3,29.9,0.00,Snow,Light Snow,360,2012-11-22 07:49:00
12:50 AM,34.0,30.9,89,29.94,3.0,North,18.4,29.9,0.00,Snow,Light Snow,10,2012-11-22 07:50:00
1:04 AM,33.8,30.2,87,29.96,9.0,West,12.7,-,0.00,,Overcast,280,2012-11-22 08:04:00
1:11 AM,35.6,30.2,81,29.97,10.0,WNW,11.5,-,0.00,,Overcast,290,2012-11-22 08:11:00
1:53 AM,34.0,30.0,85,29.98,10.0,West,8.1,-,0.00,,Mostly Cloudy,280,2012-11-22 08:53:00
2:53 AM,30.9,26.1,82,30.03,10.0,NW,9.2,-,N/A,,Clear,310,2012-11-22 09:53:00
3:53 AM,30.0,26.1,85,30.07,10.0,WNW,6.9,-,N/A,,Clear,300,2012-11-22 10:53:00
4:53 AM,28.0,24.1,85,30.12,10.0,WNW,3.5,-,N/A,,Clear,300,2012-11-22 11:53:00
5:53 AM,26.1,21.9,84,30.17,10.0,Calm,Calm,-,N/A,,Clear,0,2012-11-22 12:53:00
6:53 AM,27.0,23.0,85,30.19,10.0,ESE,5.8,-,N/A,,Clear,110,2012-11-22 13:53:00
7:53 AM,27.0,23.0,85,30.25,10.0,Calm,Calm,-,N/A,,Scattered Clouds,0,2012-11-22 14:53:00
8:53 AM,28.9,26.1,89,30.30,10.0,West,4.6,-,N/A,,Partly Cloudy,270,2012-11-22 15:53:00
9:53 AM,34.0,26.1,73,30.31,10.0,NNW,5.8,-,N/A,,Scattered Clouds,340,2012-11-22 16:53:00
10:53 AM,39.9,21.0,47,30.31,10.0,NNW,8.1,-,N/A,,Clear,330,2012-11-22 17:53:00
11:53 AM,41.0,19.9,43,30.33,10.0,WNW,10.4,-,N/A,,Clear,300,2012-11-22 18:53:00
12:53 PM,43.0,18.0,37,30.34,10.0,NNW,13.8,-,N/A,,Clear,330,2012-11-22 19:53:00
1:53 PM,44.1,16.0,32,30.35,10.0,WNW,12.7,-,N/A,,Clear,300,2012-11-22 20:53:00
2:53 PM,44.1,12.0,27,30.36,10.0,WNW,15.0,21.9,N/A,,Clear,300,2012-11-22 21:53:00
3:53 PM,43.0,12.9,30,30.40,10.0,NNW,10.4,-,N/A,,Clear,330,2012-11-22 22:53:00
4:53 PM,36.0,16.0,44,30.46,10.0,NNW,5.8,-,N/A,,Clear,330,2012-11-22 23:53:00
5:53 PM,34.0,14.0,44,30.50,10.0,NNW,8.1,-,N/A,,Clear,330,2012-11-23 00:53:00
6:53 PM,30.0,17.1,59,30.52,10.0,WNW,6.9,-,N/A,,Clear,300,2012-11-23 01:53:00
7:53 PM,30.0,16.0,56,30.55,10.0,West,9.2,-,N/A,,Clear,280,2012-11-23 02:53:00
8:53 PM,28.0,15.1,58,30.57,10.0,WNW,3.5,-,N/A,,Clear,290,2012-11-23 03:53:00
9:53 PM,25.0,16.0,69,30.56,10.0,Calm,Calm,-,N/A,,Clear,0,2012-11-23 04:53:00
10:53 PM,24.1,16.0,71,30.56,10.0,Variable,3.5,-,N/A,,Clear,0,2012-11-23 05:53:00
11:53 PM,21.9,16.0,78,30.58,10.0,Calm,Calm,-,N/A,,Clear,0,2012-11-23 06:53:00